Погода в Рамешках

Россия / Нижегородская область     57°17′27″N   44°18′09″E
темп.,
°C
ветер,
м/с
пор.,
м/с
влажн.,
%
обл.,
%
осадки,
мм/ч
давл.,
гПа
погр.,
м
10 апреля, сб
сб1000:00−4ююз11971 0.0 102811
03:00−5ю11974 0.0 102923
06:00−5ю25945 0.0 103079
09:00+3ю35820 0.0 1030341
12:00+6ю23691 0.0 1029929
15:00+7ю23652 0.0 10281091
18:00+3юв22935 0.0 102734
21:00−2ююв11965 0.0 102732
11 апреля, вс
вс1100:00−4юз119934 0.0 102730
03:00−3ююз249826 0.0 102864
06:00−2ю25935 0.0 102893
09:00+5юз35720 0.0 1029317
12:00+9юз35630 0.0 1030697
15:00+10зюз34650 0.0 1031775
18:00+6ю11934 0.0 103210
21:000юз119527 0.0 103410
12 апреля, пн
пн1200:00−1юв119692 0.0 103510
03:00−1вюв119591 0.0 103610
06:000юв259339 0.0 103768
09:00+8вюв377799 0.0 1037349
12:00+11вюв4668100 0.0 1036722
15:00+12вюв4666100 0.0 1035875
18:00+9вюв3978100 0.0 1033339
21:00+6юв41185100 0.0 1033358
13 апреля, вт
вт1300:00+5юв31095100 0.0 1032289
03:00+5юв3997100 0.0 1031210
06:00+5ююв3996100 0.0 1030202
09:00+12ю487596 0.0 1028327
12:00+17ю475843 0.0 1027754
15:00+18ю475683 0.0 10261150
18:00+14ююв396779 0.0 1025259
21:00+9ю3107837 0.0 1025176
14 апреля, ср
ср1400:00+8ю398368 0.0 1024169
03:00+7ю28835 0.0 1024123
06:00+7ю310845 0.0 1023178
09:00+14ююз485758 0.0 1022382
12:00+17ююз5848100 0.0 1021750
15:00+18ююз4744100 0.0 10211094
18:00+15ю2658100 0.0 1019124
21:00+11ю21068100 0.0 1019185